#Datum;Uhrzeit;WR;Pac;DaySum;Status;WR;Pac;DaySum;Status;Pdc1;Udc;Temp;WR;Pac;DaySum;Status;Pdc1;Udc;Temp;WR;Pac;DaySum;Status;Pdc1;Udc;Temp;WR;Pac;DaySum;Status;Pdc1;Pdc2;Udc1;Udc2;Temp;WR;Pac;DaySum;Status;Pdc1;Pdc2;Udc1;Udc2;Temp;WR;Pac;DaySum;Status;Pdc1;Udc;Temp;WR;Pac;DaySum;Status;Pdc1;Udc;Temp;WR;Pac;DaySum;Status;Pdc1;Udc;Temp
29.10.17;23:55:00;1;536;11647;0;2;0;13560;0;0;0;0;3;0;8418;0;0;0;0;4;0;9846;0;0;0;0;5;0;23958;0;0;0;0;0;0;6;0;18490;0;0;0;0;0;0;7;0;17523;0;0;0;0;8;0;16918;0;0;0;0;9;0;8889;0;0;0;0
29.10.17;23:50:00;1;549;11602;0;2;0;13560;0;0;0;0;3;0;8418;0;0;0;0;4;0;9846;0;0;0;0;5;0;23958;0;0;0;0;0;0;6;0;18490;0;0;0;0;0;0;7;0;17523;0;0;0;0;8;0;16918;0;0;0;0;9;0;8889;0;0;0;0
29.10.17;23:45:00;1;476;11557;0;2;0;13560;0;0;0;0;3;0;8418;0;0;0;0;4;0;9846;0;0;0;0;5;0;23958;0;0;0;0;0;0;6;0;18490;0;0;0;0;0;0;7;0;17523;0;0;0;0;8;0;16918;0;0;0;0;9;0;8889;0;0;0;0
29.10.17;23:40:00;1;431;11517;0;2;0;13560;0;0;0;0;3;0;8418;0;0;0;0;4;0;9846;0;0;0;0;5;0;23958;0;0;0;0;0;0;6;0;18490;0;0;0;0;0;0;7;0;17523;0;0;0;0;8;0;16918;0;0;0;0;9;0;8889;0;0;0;0
29.10.17;23:35:00;1;436;11481;0;2;0;13560;0;0;0;0;3;0;8418;0;0;0;0;4;0;9846;0;0;0;0;5;0;23958;0;0;0;0;0;0;6;0;18490;0;0;0;0;0;0;7;0;17523;0;0;0;0;8;0;16918;0;0;0;0;9;0;8889;0;0;0;0
29.10.17;23:30:00;1;434;11445;0;2;0;13560;0;0;0;0;3;0;8418;0;0;0;0;4;0;9846;0;0;0;0;5;0;23958;0;0;0;0;0;0;6;0;18490;0;0;0;0;0;0;7;0;17523;0;0;0;0;8;0;16918;0;0;0;0;9;0;8889;0;0;0;0
29.10.17;23:25:00;1;430;11408;0;2;0;13560;0;0;0;0;3;0;8418;0;0;0;0;4;0;9846;0;0;0;0;5;0;23958;0;0;0;0;0;0;6;0;18490;0;0;0;0;0;0;7;0;17523;0;0;0;0;8;0;16918;0;0;0;0;9;0;8889;0;0;0;0
29.10.17;23:20:00;1;432;11372;0;2;0;13560;0;0;0;0;3;0;8418;0;0;0;0;4;0;9846;0;0;0;0;5;0;23958;0;0;0;0;0;0;6;0;18490;0;0;0;0;0;0;7;0;17523;0;0;0;0;8;0;16918;0;0;0;0;9;0;8889;0;0;0;0
29.10.17;23:15:00;1;429;11336;0;2;0;13560;0;0;0;0;3;0;8418;0;0;0;0;4;0;9846;0;0;0;0;5;0;23958;0;0;0;0;0;0;6;0;18490;0;0;0;0;0;0;7;0;17523;0;0;0;0;8;0;16918;0;0;0;0;9;0;8889;0;0;0;0
29.10.17;23:10:00;1;444;11300;0;2;0;13560;0;0;0;0;3;0;8418;0;0;0;0;4;0;9846;0;0;0;0;5;0;23958;0;0;0;0;0;0;6;0;18490;0;0;0;0;0;0;7;0;17523;0;0;0;0;8;0;16918;0;0;0;0;9;0;8889;0;0;0;0
29.10.17;23:06:00;1;439;11278;0;2;0;13560;0;0;0;0;3;0;8418;0;0;0;0;4;0;9846;0;0;0;0;5;0;23958;0;0;0;0;0;0;6;0;18490;0;0;0;0;0;0;7;0;17523;0;0;0;0;8;0;16918;0;0;0;0;9;0;8889;0;0;0;0
29.10.17;23:00:00;1;523;11220;0;2;0;13560;0;0;0;0;3;0;8418;0;0;0;0;4;0;9846;0;0;0;0;5;0;23958;0;0;0;0;0;0;6;0;18490;0;0;0;0;0;0;7;0;17523;0;0;0;0;8;0;16918;0;0;0;0;9;0;8889;0;0;0;0
29.10.17;22:55:00;1;519;11177;0;2;0;13560;0;0;0;0;3;0;8418;0;0;0;0;4;0;9846;0;0;0;0;5;0;23958;2;0;0;0;0;0;6;0;18490;2;0;0;0;0;0;7;0;17523;0;0;0;0;8;0;16918;0;0;0;0;9;0;8889;0;0;0;0
29.10.17;22:50:00;1;570;11133;0;2;0;13560;0;0;0;0;3;0;8418;0;0;0;0;4;0;9846;0;0;0;0;5;0;23958;2;0;0;0;0;0;6;0;18490;2;0;0;0;0;0;7;0;17523;0;0;0;0;8;0;16918;0;0;0;0;9;0;8889;0;0;0;0
29.10.17;22:45:00;1;476;11092;0;2;0;13560;0;0;0;0;3;0;8418;0;0;0;0;4;0;9846;0;0;0;0;5;0;23958;2;0;0;0;0;0;6;0;18490;2;0;0;0;0;0;7;0;17523;0;0;0;0;8;0;16918;0;0;0;0;9;0;8889;0;0;0;0
29.10.17;22:40:00;1;478;11052;0;2;0;13560;0;0;0;0;3;0;8418;0;0;0;0;4;0;9846;0;0;0;0;5;0;23958;2;0;0;0;0;0;6;0;18490;2;0;0;0;0;0;7;0;17523;0;0;0;0;8;0;16918;0;0;0;0;9;0;8889;0;0;0;0
29.10.17;22:35:00;1;459;11012;0;2;0;13560;0;0;0;0;3;0;8418;0;0;0;0;4;0;9846;0;0;0;0;5;0;23958;2;0;0;0;0;0;6;0;18490;2;0;0;0;0;0;7;0;17523;0;0;0;0;8;0;16918;0;0;0;0;9;0;8889;0;0;0;0
29.10.17;22:30:00;1;420;10974;0;2;0;13560;0;0;0;0;3;0;8418;0;0;0;0;4;0;9846;0;0;0;0;5;0;23958;2;0;0;0;0;0;6;0;18490;2;0;0;0;0;0;7;0;17523;0;0;0;0;8;0;16918;0;0;0;0;9;0;8889;0;0;0;0
29.10.17;22:25:00;1;423;10939;0;2;0;13560;0;0;0;0;3;0;8418;0;0;0;0;4;0;9846;0;0;0;0;5;0;23958;2;0;0;0;0;0;6;0;18490;2;0;0;0;0;0;7;0;17523;0;0;0;0;8;0;16918;0;0;0;0;9;0;8889;0;0;0;0
29.10.17;22:20:00;1;415;10904;0;2;0;13560;0;0;0;0;3;0;8418;0;0;0;0;4;0;9846;0;0;0;0;5;0;23958;2;0;0;0;0;0;6;0;18490;2;0;0;0;0;0;7;0;17523;0;0;0;0;8;0;16918;0;0;0;0;9;0;8889;0;0;0;0
29.10.17;22:15:00;1;429;10868;0;2;0;13560;0;0;0;0;3;0;8418;0;0;0;0;4;0;9846;0;0;0;0;5;0;23958;2;0;0;0;0;0;6;0;18490;2;0;0;0;0;0;7;0;17523;0;0;0;0;8;0;16918;0;0;0;0;9;0;8889;0;0;0;0
29.10.17;22:10:00;1;468;10832;0;2;0;13560;0;0;0;0;3;0;8418;0;0;0;0;4;0;9846;0;0;0;0;5;0;23958;2;0;0;0;0;0;6;0;18490;2;0;0;0;0;0;7;0;17523;0;0;0;0;8;0;16918;0;0;0;0;9;0;8889;0;0;0;0
29.10.17;22:05:00;1;477;10793;0;2;0;13560;0;0;0;0;3;0;8418;0;0;0;0;4;0;9846;0;0;0;0;5;0;23958;2;0;0;0;0;0;6;0;18490;2;0;0;0;0;0;7;0;17523;0;0;0;0;8;0;16918;0;0;0;0;9;0;8889;0;0;0;0
29.10.17;22:00:00;1;477;10753;0;2;0;13560;0;0;0;0;3;0;8418;0;0;0;0;4;0;9846;0;0;0;0;5;0;23958;2;0;0;0;0;0;6;0;18490;2;0;0;0;0;0;7;0;17523;0;0;0;0;8;0;16918;0;0;0;0;9;0;8889;0;0;0;0
29.10.17;21:55:00;1;478;10713;0;2;0;13560;0;0;0;0;3;0;8418;0;0;0;0;4;0;9846;0;0;0;0;5;0;23958;2;0;0;0;0;0;6;0;18490;2;0;0;0;0;0;7;0;17523;0;0;0;0;8;0;16918;0;0;0;0;9;0;8889;0;0;0;0
29.10.17;21:50:00;1;492;10672;0;2;0;13560;0;0;0;0;3;0;8418;0;0;0;0;4;0;9846;0;0;0;0;5;0;23958;2;0;0;0;0;0;6;0;18490;2;0;0;0;0;0;7;0;17523;0;0;0;0;8;0;16918;0;0;0;0;9;0;8889;0;0;0;0
29.10.17;21:45:00;1;497;10631;0;2;0;13560;0;0;0;0;3;0;8418;0;0;0;0;4;0;9846;0;0;0;0;5;0;23958;2;0;0;0;0;0;6;0;18490;2;0;0;0;0;0;7;0;17523;0;0;0;0;8;0;16918;0;0;0;0;9;0;8889;0;0;0;0
29.10.17;21:40:00;1;493;10590;0;2;0;13560;0;0;0;0;3;0;8418;0;0;0;0;4;0;9846;0;0;0;0;5;0;23958;2;0;0;0;0;0;6;0;18490;2;0;0;0;0;0;7;0;17523;0;0;0;0;8;0;16918;0;0;0;0;9;0;8889;0;0;0;0
29.10.17;21:35:00;1;507;10548;0;2;0;13560;0;0;0;0;3;0;8418;0;0;0;0;4;0;9846;0;0;0;0;5;0;23958;2;0;0;0;0;0;6;0;18490;2;0;0;0;0;0;7;0;17523;0;0;0;0;8;0;16918;0;0;0;0;9;0;8889;0;0;0;0
29.10.17;21:30:00;1;543;10506;0;2;0;13560;0;0;0;0;3;0;8418;0;0;0;0;4;0;9846;0;0;0;0;5;0;23958;2;0;0;0;0;0;6;0;18490;2;0;0;0;0;0;7;0;17523;0;0;0;0;8;0;16918;0;0;0;0;9;0;8889;0;0;0;0
29.10.17;21:20:00;1;600;10414;0;2;0;13560;0;0;0;0;3;0;8418;0;0;0;0;4;0;9846;0;0;0;0;5;0;23958;2;0;0;0;0;0;6;0;18490;2;0;0;0;0;0;7;0;17523;0;0;0;0;8;0;16918;0;0;0;0;9;0;8889;0;0;0;0
29.10.17;21:15:00;1;595;10364;0;2;0;13560;0;0;0;0;3;0;8418;0;0;0;0;4;0;9846;0;0;0;0;5;0;23958;2;0;0;0;0;0;6;0;18490;2;0;0;0;0;0;7;0;17523;0;0;0;0;8;0;16918;0;0;0;0;9;0;8889;0;0;0;0
29.10.17;21:10:00;1;602;10314;0;2;0;13560;0;0;0;0;3;0;8418;0;0;0;0;4;0;9846;0;0;0;0;5;0;23958;2;0;0;0;0;0;6;0;18490;2;0;0;0;0;0;7;0;17523;0;0;0;0;8;0;16918;0;0;0;0;9;0;8889;0;0;0;0
29.10.17;21:05:00;1;546;10262;0;2;0;13560;0;0;0;0;3;0;8418;0;0;0;0;4;0;9846;0;0;0;0;5;0;23958;2;0;0;0;0;0;6;0;18490;2;0;0;0;0;0;7;0;17523;0;0;0;0;8;0;16918;0;0;0;0;9;0;8889;0;0;0;0
29.10.17;20:55:00;1;492;10180;0;2;0;13560;0;0;0;0;3;0;8418;0;0;0;0;4;0;9846;0;0;0;0;5;0;23958;2;0;0;0;0;0;6;0;18490;2;0;0;0;0;0;7;0;17523;0;0;0;0;8;0;16918;0;0;0;0;9;0;8889;0;0;0;0
29.10.17;20:50:00;1;492;10130;0;2;0;13560;0;0;0;0;3;0;8418;0;0;0;0;4;0;9846;0;0;0;0;5;0;23958;2;0;0;0;0;0;6;0;18490;2;0;0;0;0;0;7;0;17523;0;0;0;0;8;0;16918;0;0;0;0;9;0;8889;0;0;0;0
29.10.17;20:45:00;1;411;10089;0;2;0;13560;0;0;0;0;3;0;8418;0;0;0;0;4;0;9846;0;0;0;0;5;0;23958;2;0;0;0;0;0;6;0;18490;2;0;0;0;0;0;7;0;17523;0;0;0;0;8;0;16918;0;0;0;0;9;0;8889;0;0;0;0
29.10.17;20:40:00;1;326;10056;0;2;0;13560;0;0;0;0;3;0;8418;0;0;0;0;4;0;9846;0;0;0;0;5;0;23958;2;0;0;0;0;0;6;0;18490;2;0;0;0;0;0;7;0;17523;0;0;0;0;8;0;16918;0;0;0;0;9;0;8889;0;0;0;0
29.10.17;20:35:00;1;325;10028;0;2;0;13560;0;0;0;0;3;0;8418;0;0;0;0;4;0;9846;0;0;0;0;5;0;23958;2;0;0;0;0;0;6;0;18490;2;0;0;0;0;0;7;0;17523;0;0;0;0;8;0;16918;0;0;0;0;9;0;8889;0;0;0;0
29.10.17;20:30:00;1;367;10001;0;2;0;13560;0;0;0;0;3;0;8418;0;0;0;0;4;0;9846;0;0;0;0;5;0;23958;2;0;0;0;0;0;6;0;18490;2;0;0;0;0;0;7;0;17523;0;0;0;0;8;0;16918;0;0;0;0;9;0;8889;0;0;0;0
29.10.17;20:25:00;1;374;9970;0;2;0;13560;0;0;0;0;3;0;8418;0;0;0;0;4;0;9846;0;0;0;0;5;0;23958;2;0;0;0;0;0;6;0;18490;2;0;0;0;0;0;7;0;17523;0;0;0;0;8;0;16918;0;0;0;0;9;0;8889;0;0;0;0
29.10.17;20:20:00;1;394;9939;0;2;0;13560;0;0;0;0;3;0;8418;0;0;0;0;4;0;9846;0;0;0;0;5;0;23958;2;0;0;0;0;0;6;0;18490;2;0;0;0;0;0;7;0;17523;0;0;0;0;8;0;16918;0;0;0;0;9;0;8889;0;0;0;0
29.10.17;20:15:00;1;352;9913;0;2;0;13560;0;0;0;0;3;0;8418;0;0;0;0;4;0;9846;0;0;0;0;5;0;23958;2;0;0;0;0;0;6;0;18490;2;0;0;0;0;0;7;0;17523;0;0;0;0;8;0;16918;0;0;0;0;9;0;8889;0;0;0;0
29.10.17;20:05:00;1;344;9847;0;2;0;13560;0;0;0;0;3;0;8418;0;0;0;0;4;0;9846;0;0;0;0;5;0;23958;2;0;0;0;0;0;6;0;18490;2;0;0;0;0;0;7;0;17523;0;0;0;0;8;0;16918;0;0;0;0;9;0;8889;0;0;0;0
29.10.17;20:00:00;1;345;9818;0;2;0;13560;0;0;0;0;3;0;8418;0;0;0;0;4;0;9846;0;0;0;0;5;0;23958;2;0;0;0;0;0;6;0;18490;2;0;0;0;0;0;7;0;17523;0;0;0;0;8;0;16918;0;0;0;0;9;0;8889;0;0;0;0
29.10.17;19:55:00;1;355;9789;0;2;0;13560;0;0;0;0;3;0;8418;0;0;0;0;4;0;9846;0;0;0;0;5;0;23958;2;0;0;0;0;0;6;0;18490;2;0;0;0;0;0;7;0;17523;0;0;0;0;8;0;16918;0;0;0;0;9;0;8889;0;0;0;0
29.10.17;19:40:00;1;352;9701;0;2;0;13560;0;0;0;0;3;0;8418;0;0;0;0;4;0;9846;0;0;0;0;5;0;23958;2;0;0;0;0;0;6;0;18490;2;0;0;0;0;0;7;0;17523;0;0;0;0;8;0;16918;0;0;0;0;9;0;8889;0;0;0;0
29.10.17;19:35:00;1;400;9671;0;2;0;13560;0;0;0;0;3;0;8418;0;0;0;0;4;0;9846;0;0;0;0;5;0;23958;2;0;0;0;0;0;6;0;18490;2;0;0;0;0;0;7;0;17523;0;0;0;0;8;0;16918;0;0;0;0;9;0;8889;0;0;0;0
29.10.17;19:30:00;1;400;9637;0;2;0;13560;0;0;0;0;3;0;8418;0;0;0;0;4;0;9846;0;0;0;0;5;0;23958;2;0;0;0;0;0;6;0;18490;2;0;0;0;0;0;7;0;17523;0;0;0;0;8;0;16918;0;0;0;0;9;0;8889;0;0;0;0
29.10.17;19:25:00;1;392;9604;0;2;0;13560;0;0;0;0;3;0;8418;0;0;0;0;4;0;9846;0;0;0;0;5;0;23958;2;0;0;0;0;0;6;0;18490;2;0;0;0;0;0;7;0;17523;0;0;0;0;8;0;16918;0;0;0;0;9;0;8889;0;0;0;0
29.10.17;19:20:00;1;354;9571;0;2;0;13560;0;0;0;0;3;0;8418;0;0;0;0;4;0;9846;0;0;0;0;5;0;23958;2;0;0;0;0;0;6;0;18490;2;0;0;0;0;0;7;0;17523;0;0;0;0;8;0;16918;0;0;0;0;9;0;8889;0;0;0;0
29.10.17;19:15:00;1;359;9542;0;2;0;13560;0;0;0;0;3;0;8418;0;0;0;0;4;0;9846;0;0;0;0;5;0;23958;2;0;0;0;0;0;6;0;18490;2;0;0;0;0;0;7;0;17523;0;0;0;0;8;0;16918;0;0;0;0;9;0;8889;0;0;0;0
29.10.17;19:10:00;1;412;9511;0;2;0;13560;0;0;0;0;3;0;8418;0;0;0;0;4;0;9846;0;0;0;0;5;0;23958;2;0;0;0;0;0;6;0;18490;2;0;0;0;0;0;7;0;17523;0;0;0;0;8;0;16918;0;0;0;0;9;0;8889;0;0;0;0
29.10.17;19:05:00;1;586;9474;0;2;0;13560;0;0;0;0;3;0;8418;0;0;0;0;4;0;9846;0;0;0;0;5;0;23958;2;0;0;0;0;0;6;0;18490;2;0;0;0;0;0;7;0;17523;0;0;0;0;8;0;16918;0;0;0;0;9;0;8889;0;0;0;0
29.10.17;19:00:00;1;462;9422;0;2;0;13560;0;0;0;0;3;0;8418;0;0;0;0;4;0;9846;0;0;0;0;5;0;23958;2;0;0;0;0;0;6;0;18490;2;0;0;0;0;0;7;0;17523;0;0;0;0;8;0;16918;0;0;0;0;9;0;8889;0;0;0;0
29.10.17;18:55:00;1;459;9383;0;2;0;13560;0;0;0;0;3;0;8418;0;0;0;0;4;0;9846;0;0;0;0;5;0;23958;2;0;0;0;0;0;6;0;18490;2;0;0;0;0;0;7;0;17523;0;0;0;0;8;0;16918;0;0;0;0;9;0;8889;0;0;0;0
29.10.17;18:50:00;1;462;9345;0;2;0;13560;0;0;0;0;3;0;8418;0;0;0;0;4;0;9846;0;0;0;0;5;0;23958;2;0;0;0;0;0;6;0;18490;2;0;0;0;0;0;7;0;17523;0;0;0;0;8;0;16918;0;0;0;0;9;0;8889;0;0;0;0
29.10.17;18:45:00;1;501;9306;0;2;0;13560;0;0;0;0;3;0;8418;0;0;0;0;4;0;9846;0;0;0;0;5;0;23958;2;0;0;0;0;0;6;0;18490;2;0;0;0;0;0;7;0;17523;0;0;0;0;8;0;16918;0;0;0;0;9;0;8889;0;0;0;0
29.10.17;18:40:00;1;519;9264;0;2;0;13560;0;0;0;0;3;0;8418;0;0;0;0;4;0;9846;0;0;0;0;5;0;23958;2;0;0;0;0;0;6;0;18490;2;0;0;0;0;0;7;0;17523;0;0;0;0;8;0;16918;0;0;0;0;9;0;8889;0;0;0;0
29.10.17;18:35:00;1;513;9221;0;2;0;13560;0;0;0;0;3;0;8418;0;0;0;0;4;0;9846;0;0;0;0;5;0;23958;2;0;0;0;0;0;6;0;18490;2;0;0;0;0;0;7;0;17523;0;0;0;0;8;0;16918;0;0;0;0;9;0;8889;0;0;0;0
29.10.17;18:30:00;1;445;9179;0;2;0;13560;0;0;0;0;3;0;8418;0;0;0;0;4;0;9846;0;0;0;0;5;0;23958;2;0;0;0;0;0;6;0;18490;2;0;0;0;0;0;7;0;17523;0;0;0;0;8;0;16918;0;0;0;0;9;0;8889;0;0;0;0
29.10.17;18:25:00;1;416;9141;0;2;0;13560;0;0;0;0;3;0;8418;0;0;0;0;4;0;9846;0;0;0;0;5;0;23958;2;0;0;0;0;0;6;0;18490;2;0;0;0;0;0;7;0;17523;0;0;0;0;8;0;16918;0;0;0;0;9;0;8889;0;0;0;0
29.10.17;18:20:00;1;364;9113;0;2;0;13560;0;0;0;0;3;0;8418;0;0;0;0;4;0;9846;0;0;0;0;5;0;23958;2;0;0;0;0;0;6;0;18490;2;0;0;0;0;0;7;0;17523;0;0;0;0;8;0;16918;0;0;0;0;9;0;8889;0;0;0;0
29.10.17;18:15:00;1;351;9074;0;2;0;13560;0;0;0;0;3;0;8418;0;0;0;0;4;0;9846;0;0;0;0;5;0;23958;2;0;0;0;0;0;6;0;18490;2;0;0;0;0;0;7;0;17523;0;0;0;0;8;0;16918;0;0;0;0;9;0;8889;0;0;0;0
29.10.17;18:10:00;1;377;9045;0;2;0;13560;0;0;0;0;3;0;8418;0;0;0;0;4;0;9846;0;0;0;0;5;0;23958;2;0;0;0;0;0;6;0;18490;2;0;0;0;0;0;7;0;17523;0;0;0;0;8;0;16918;0;0;0;0;9;0;8889;0;0;0;0
29.10.17;18:05:00;1;366;9013;0;2;0;13560;0;0;0;0;3;0;8418;0;0;0;0;4;0;9846;0;0;0;0;5;0;23958;2;0;0;0;0;0;6;0;18490;2;0;0;0;0;0;7;0;17523;0;0;0;0;8;0;16918;0;0;0;0;9;0;8889;0;0;0;0
29.10.17;18:00:00;1;361;8982;0;2;0;13560;0;0;0;0;3;0;8418;0;0;0;0;4;0;9846;0;0;0;0;5;0;23958;2;0;0;0;0;0;6;0;18490;2;0;0;0;0;0;7;0;17523;0;0;0;0;8;0;16918;0;0;0;0;9;0;8889;0;0;0;0
29.10.17;17:55:00;1;359;8952;0;2;0;13560;0;0;0;0;3;0;8418;0;0;0;0;4;0;9846;0;0;0;0;5;0;23958;2;0;0;0;0;0;6;0;18490;2;0;0;0;0;0;7;0;17523;0;0;0;0;8;0;16918;0;0;0;0;9;0;8889;0;0;0;0
29.10.17;17:50:00;1;396;8921;0;2;0;13560;0;0;0;0;3;0;8418;0;0;0;0;4;0;9846;0;0;0;0;5;0;23958;2;0;0;0;0;0;6;0;18490;2;0;0;0;0;0;7;0;17523;0;0;0;0;8;0;16918;0;0;0;0;9;0;8889;0;0;0;0
29.10.17;17:45:00;1;412;8888;0;2;0;13560;0;0;0;0;3;0;8418;0;0;0;0;4;0;9846;0;0;0;0;5;0;23958;2;0;0;0;0;0;6;0;18490;2;0;0;0;0;0;7;0;17523;0;0;0;0;8;0;16918;0;0;0;0;9;0;8889;0;0;0;0
29.10.17;17:40:00;1;411;8853;0;2;0;13560;0;0;0;0;3;0;8418;0;0;0;0;4;0;9846;0;0;0;0;5;0;23958;2;0;0;0;0;0;6;0;18490;2;0;0;0;0;0;7;0;17523;0;0;0;0;8;0;16918;0;0;0;0;9;0;8889;0;0;0;0
29.10.17;17:35:00;1;382;8819;0;2;0;13560;0;0;0;0;3;0;8418;0;0;0;0;4;0;9846;0;0;0;0;5;0;23958;2;0;0;0;0;0;6;0;18490;2;0;0;0;0;0;7;0;17523;0;0;0;0;8;0;16918;0;0;0;0;9;0;8889;0;0;0;0
29.10.17;17:30:00;1;384;8787;0;2;0;13560;0;0;0;0;3;0;8418;0;0;0;0;4;0;9846;0;0;0;0;5;0;23958;2;0;0;0;0;0;6;0;18490;2;0;0;0;0;0;7;0;17523;0;0;0;0;8;0;16918;0;0;0;0;9;0;8889;0;0;0;0
29.10.17;17:25:00;1;386;8755;0;2;0;13560;0;0;0;0;3;0;8418;0;0;0;0;4;0;9846;0;0;0;0;5;0;23958;2;0;0;0;0;0;6;0;18490;2;0;0;0;0;0;7;0;17523;0;0;0;0;8;0;16918;0;0;0;0;9;0;8889;0;0;0;0
29.10.17;17:20:00;1;395;8723;0;2;0;13560;0;0;0;0;3;0;8418;0;0;0;0;4;0;9846;0;0;0;0;5;0;23958;2;0;0;0;0;0;6;0;18490;2;0;0;0;0;0;7;0;17523;0;0;0;0;8;0;16918;0;0;0;0;9;0;8889;0;0;0;0
29.10.17;17:15:00;1;395;8690;0;2;0;13560;0;0;0;0;3;0;8418;0;0;84;7;4;0;9846;0;0;0;0;5;0;23958;2;0;0;0;0;0;6;0;18490;0;0;0;0;0;0;7;0;17523;0;0;0;0;8;0;16918;0;0;0;0;9;0;8889;0;0;0;0
29.10.17;17:10:00;1;325;8657;0;2;0;13560;2;0;274;22;3;0;8418;6;0;307;22;4;0;9846;0;0;21;5;5;0;23958;0;0;0;0;0;1;6;0;18490;2;0;0;0;0;0;7;0;17523;0;0;0;0;8;0;16918;0;0;0;0;9;0;8889;0;0;0;0
29.10.17;17:05:00;1;313;8631;0;2;0;13560;6;0;300;22;3;0;8418;6;0;345;23;4;0;9846;2;0;81;20;5;0;23958;2;0;0;0;0;0;6;0;18490;2;0;0;0;0;0;7;0;17523;0;0;0;0;8;0;16918;0;0;0;0;9;0;8889;0;0;0;0
29.10.17;17:00:00;1;325;8604;0;2;0;13560;6;0;327;23;3;0;8418;6;2;385;23;4;0;9846;1;0;109;20;5;0;23958;2;7;0;259;143;24;6;0;18490;2;4;0;293;142;22;7;0;17523;0;0;151;14;8;0;16918;0;0;156;13;9;0;8889;0;0;163;11
29.10.17;16:55:00;1;329;8577;0;2;0;13560;6;0;377;24;3;1;8418;6;3;451;24;4;0;9846;1;0;185;21;5;7;23958;23;11;0;385;500;31;6;0;18490;23;5;2;552;416;29;7;0;17523;6;0;377;24;8;0;16918;6;0;377;23;9;0;8889;6;0;395;19
29.10.17;16:50:00;1;323;8550;0;2;11;13560;6;23;391;25;3;0;8418;6;5;502;24;4;1;9846;3;1;208;21;5;62;23957;4;49;8;320;409;32;6;49;18490;4;26;24;463;437;30;7;0;17523;6;2;453;25;8;1;16918;6;5;437;24;9;0;8889;6;1;492;19
29.10.17;16:45:00;1;327;8522;0;2;66;13559;4;101;353;26;3;6;8418;6;13;523;25;4;15;9846;3;16;198;22;5;110;23952;4;100;31;320;409;32;6;88;18486;4;52;51;463;437;30;7;35;17523;4;74;422;25;8;32;16918;6;68;430;25;9;0;8889;6;0;555;20
29.10.17;16:40:00;1;365;8495;0;2;176;13554;4;217;384;27;3;86;8417;6;117;450;26;4;56;9845;3;59;201;22;5;153;23942;4;99;34;324;408;32;6;135;18478;4;76;81;463;437;30;7;89;17520;4;133;421;26;8;84;16916;4;121;421;25;9;10;8889;3;20;523;20
29.10.17;16:35:00;1;571;8462;0;2;375;13539;4;427;400;28;3;230;8410;4;272;419;26;4;216;9840;5;225;229;22;5;245;23929;4;200;76;401;409;32;6;198;18466;4;105;103;463;437;30;7;156;17513;4;210;461;26;8;131;16909;4;176;440;25;9;27;8888;6;39;545;21
29.10.17;16:30:00;1;646;8413;0;2;525;13509;4;582;408;28;3;349;8392;4;396;432;27;4;430;9822;5;447;221;23;5;431;23907;4;293;148;410;536;33;6;347;18449;4;155;171;529;522;30;7;403;17500;4;454;443;27;8;198;16899;4;238;447;26;9;77;8886;4;116;499;22
29.10.17;16:25:00;1;619;8360;0;2;707;13465;4;761;358;29;3;475;8363;4;523;436;27;4;571;9787;5;594;233;23;5;708;23871;4;455;267;419;584;33;6;582;18419;4;293;302;591;569;30;7;661;17467;4;711;458;27;8;305;16882;4;346;482;26;9;123;8879;4;162;521;22
29.10.17;16:20:00;1;660;8308;0;2;791;13406;4;844;354;30;3;510;8323;4;560;436;27;4;548;9739;5;571;239;23;5;771;23809;4;485;309;418;620;33;6;610;18369;4;312;312;595;571;30;7;840;17412;4;904;454;27;8;310;16856;4;355;490;27;9;104;8869;4;141;513;22
29.10.17;16:15:00;1;675;8253;0;2;905;13340;4;963;353;31;3;550;8280;4;603;431;28;4;555;9693;5;577;243;23;5;835;23745;4;500;332;423;664;33;6;645;18318;4;339;349;601;567;31;7;1030;17343;4;1099;450;28;8;328;16830;4;374;437;27;9;91;8860;4;121;519;23
29.10.17;16:10:00;1;687;8195;0;2;1092;13265;4;1160;371;32;3;612;8235;4;668;435;28;4;599;9647;5;624;213;24;5;975;23675;4;573;394;427;684;34;6;745;18264;4;356;360;606;570;31;7;1380;17258;4;1465;505;28;8;411;16803;4;454;379;28;9;97;8852;4;139;506;23
29.10.17;16:05:00;1;685;8138;0;2;1332;13175;4;1412;398;33;3;705;8184;4;766;444;29;4;673;9598;5;701;231;24;5;1157;23593;4;695;495;434;702;34;6;897;18202;4;417;419;605;567;31;7;1683;17143;4;1774;503;29;8;751;16769;4;800;375;28;9;121;8844;4;157;530;24
29.10.17;16:00:00;1;586;8081;0;2;843;13065;4;904;394;33;3;487;8126;4;537;456;29;4;465;9542;5;484;233;24;5;822;23494;4;492;325;408;602;34;6;588;18127;4;309;274;534;442;31;7;982;17005;4;1052;483;29;8;582;16708;4;626;392;29;9;111;8834;4;148;517;24
29.10.17;15:55:00;1;556;8032;0;2;844;12993;4;906;378;34;3;436;8084;4;492;480;29;4;450;9502;5;469;219;25;5;821;23432;4;516;295;416;525;34;6;600;18083;4;308;286;493;446;31;7;1081;16918;4;1153;463;30;8;865;16657;4;923;433;29;9;101;8825;4;137;447;25
29.10.17;15:50:00;1;485;7986;0;2;1051;12929;4;1129;403;36;3;537;8050;4;595;475;30;4;451;9465;5;469;216;25;5;902;23370;4;566;383;411;645;35;6;575;18039;4;302;294;588;566;32;7;882;16832;4;941;505;30;8;613;16588;4;667;479;30;9;124;8816;4;155;358;26
29.10.17;15:45:00;1;421;7945;0;2;1702;12844;4;1812;419;38;3;994;8006;4;1062;438;31;4;867;9429;5;904;200;26;5;1740;23287;4;1025;762;438;682;35;6;1257;17978;4;653;642;615;575;32;7;1919;16763;4;2026;495;31;8;1730;16540;4;1827;475;31;9;376;8806;4;413;352;27
29.10.17;15:40:00;1;262;7911;0;2;2036;12700;4;2155;404;39;3;1125;7922;4;1198;446;31;4;916;9355;5;954;203;26;5;2261;23138;4;1298;985;432;705;35;6;1644;17865;4;859;840;620;582;32;7;2756;16598;4;2896;488;31;8;2661;16389;4;2793;486;31;9;867;8773;4;922;363;28
29.10.17;15:35:00;1;188;7889;0;2;2257;12531;4;2385;397;40;3;1263;7828;4;1341;440;32;4;933;9279;5;972;201;26;5;2614;22946;4;1514;1143;436;700;36;6;1998;17718;4;1018;998;619;586;32;7;3008;16369;4;3165;495;31;8;2935;16168;4;3079;487;31;9;1148;8702;4;1216;404;29
29.10.17;15:30:00;1;203;7873;0;2;2372;12344;4;2509;401;40;3;1334;7724;4;1416;444;32;4;931;9201;5;969;207;27;5;2945;22727;4;1692;1291;435;699;36;6;2243;17550;4;1156;1118;614;588;32;7;3211;16120;4;3371;489;32;8;3117;15927;4;3274;484;31;9;1361;8608;4;1438;436;30
29.10.17;15:25:00;1;230;7856;0;2;2722;12147;4;2871;392;40;3;1545;7612;4;1639;444;32;4;1290;9123;5;1343;247;27;5;3818;22479;4;2162;1694;436;705;36;6;2905;17361;4;1501;1457;620;584;32;7;3738;15853;4;3921;483;32;8;3634;15665;4;3820;482;32;9;1705;8495;4;1806;466;31
29.10.17;15:20:00;1;231;7835;0;2;2461;11924;4;2606;406;40;3;1282;7486;4;1365;447;32;4;1203;9019;5;1254;249;27;5;3369;22179;4;1926;1475;431;689;36;6;2616;17131;4;1359;1290;613;573;33;7;2980;15546;4;3135;498;32;8;3162;15368;4;3318;490;32;9;1689;8355;4;1791;493;32
29.10.17;15:15:00;1;269;7816;0;2;1562;11718;4;1666;410;40;3;803;7378;4;875;518;32;4;922;8920;5;960;250;27;5;2459;21888;4;1425;1079;427;682;37;6;1933;16912;4;1011;961;607;559;33;7;2285;15296;4;2405;477;32;8;2082;15104;4;2203;478;32;9;904;8215;4;979;527;31
29.10.17;15:10:00;1;190;7797;0;2;1587;11589;4;1697;404;43;3;1065;7311;4;1141;467;33;4;943;8843;5;982;242;28;5;2595;21712;4;1493;1163;430;673;37;6;1863;16773;4;956;934;586;569;33;7;1658;15109;4;1760;472;33;8;1684;14933;4;1790;474;33;9;783;8141;4;854;532;33
29.10.17;15:05:00;1;192;7781;0;2;2965;11462;4;3136;406;44;3;1638;7226;4;1734;440;34;4;1101;8766;5;1147;221;28;5;4088;21504;4;2324;1815;433;697;37;6;3128;16617;4;1633;1577;611;587;33;7;3737;14971;4;3929;484;34;8;3859;14788;4;4052;481;33;9;2091;8077;4;2220;537;34
29.10.17;15:00:00;1;193;7765;0;2;2952;11215;4;3119;404;45;3;1625;7089;4;1720;442;34;4;1036;8674;5;1079;219;29;5;4159;21171;4;2363;1859;433;704;37;6;3197;16360;4;1640;1582;614;590;33;7;4014;14657;4;4219;487;34;8;3919;14466;4;4114;479;33;9;2121;7903;4;2250;534;34
29.10.17;14:55:00;1;233;7749;0;2;3048;10969;4;3225;406;45;3;1653;6954;4;1749;438;34;4;1102;8588;5;1147;206;29;5;4344;20824;4;2467;1936;433;700;38;6;3329;16093;4;1720;1667;614;587;33;7;4089;14323;4;4294;480;34;8;3985;14140;4;4184;482;33;9;2161;7727;4;2294;534;35
29.10.17;14:50:00;1;239;7729;0;2;3146;10715;4;3322;404;45;3;1702;6816;4;1797;435;35;4;1222;8496;5;1273;221;30;5;4569;20459;4;2593;2039;432;701;38;6;3505;15815;4;1812;1748;612;589;33;7;4231;13982;4;4443;487;34;8;4129;13807;4;4337;479;34;9;2250;7546;4;2385;531;35
29.10.17;14:45:00;1;240;7709;0;2;3229;10453;4;3413;406;46;3;1746;6674;4;1844;441;35;4;1365;8394;5;1422;238;30;5;4792;20078;4;2711;2129;434;696;38;6;3669;15522;4;1904;1830;614;591;33;7;4354;13630;4;4571;484;34;8;4243;13464;4;4455;477;34;9;2309;7359;4;2452;537;35
29.10.17;14:40:00;1;254;7689;0;2;3314;10183;4;3501;409;46;3;1777;6529;4;1875;433;35;4;1505;8280;5;1567;230;31;5;4961;19676;4;2807;2213;433;694;38;6;3810;15214;4;1965;1897;613;591;34;7;4445;13267;4;4661;477;34;8;4348;13109;4;4563;475;34;9;2356;7166;4;2502;533;35
29.10.17;14:35:00;1;283;7667;0;2;3496;9908;4;3699;411;46;3;1891;6381;4;1997;444;36;4;1715;8155;5;1786;245;32;5;5355;19261;4;3030;2387;432;697;38;6;4092;14895;4;2109;2034;611;591;34;7;4662;12897;4;4896;481;34;8;4550;12748;4;4777;476;34;9;2475;6970;4;2626;526;35
29.10.17;14:30:00;1;286;7643;0;2;3795;9617;4;4013;412;46;3;2157;6223;4;2276;479;36;4;2054;8012;5;2140;237;32;5;6027;18810;4;3424;2680;431;704;38;6;4628;14551;4;2403;2304;615;597;34;7;5024;12507;4;5286;491;34;8;4932;12368;4;5186;482;33;9;2696;6763;4;2858;529;35
29.10.17;14:25:00;1;275;7618;0;2;3105;9300;4;3289;411;45;3;2006;6043;4;2126;491;36;4;1821;7841;5;1897;247;32;5;4700;18309;4;2662;2022;422;688;38;6;2572;14167;4;1374;1299;622;600;34;7;2832;12090;4;2980;473;34;8;3671;11958;4;3864;486;33;9;2024;6539;4;2153;518;34
29.10.17;14:20:00;1;192;7594;0;2;2095;9035;4;2225;404;46;3;1439;5874;4;1538;520;37;4;1722;7688;5;1793;240;33;5;5083;17938;4;2936;2270;428;667;38;6;4590;13877;4;2381;2326;597;580;34;7;2847;11859;4;3009;458;34;8;2241;11663;4;2359;463;34;9;1127;6376;4;1211;513;34
29.10.17;14:15:00;1;229;7577;0;2;3873;8856;4;4095;408;47;3;2584;5748;4;2731;527;37;4;2520;7540;5;2625;246;33;5;6587;17568;4;3718;2953;430;692;38;6;5073;13585;4;2638;2529;612;591;34;7;5332;11606;4;5603;473;34;8;5201;11457;4;5465;471;34;9;2774;6274;4;2947;521;36
29.10.17;14:10:00;1;294;7555;0;2;3541;8532;4;3750;411;46;3;2291;5532;4;2426;530;37;4;2382;7329;5;2481;242;33;5;6116;17009;4;3484;2741;430;681;38;6;5086;13157;4;2657;2550;609;593;34;7;5439;11161;4;5709;490;34;8;5337;11023;4;5607;472;34;9;2440;6042;4;2591;518;35
29.10.17;14:05:00;1;261;7531;0;2;3321;8233;4;3524;422;45;3;2174;5338;4;2303;518;36;4;2430;7127;5;2531;245;34;5;5609;16482;4;3134;2533;437;672;38;6;5085;12743;4;2743;2555;617;606;34;7;4205;10706;4;4421;485;34;8;4593;10575;4;4816;475;33;9;2393;5835;4;2540;529;35
29.10.17;14:00:00;1;283;7509;0;2;3484;7951;4;3686;403;45;3;1853;5154;4;1971;528;36;4;2013;6922;5;2097;245;34;5;4533;15993;4;2588;2040;428;670;38;6;4574;12358;4;2398;2301;604;591;33;7;4995;10348;4;5255;484;34;8;4747;10188;4;4990;485;33;9;2341;5631;4;2488;519;34